Weather History for Bay City, TX

Change the Weather History Date:

Wednesday, January 1, 2014

  Actual Average (KLBX) Record (KLBX)
Temperature  
Mean Temperature 56 °F -  
Max Temperature 65 °F 62 °F 81 °F (2006)
Min Temperature 46 °F 44 °F 34 °F (2008)
Degree Days  
Heating Degree Days 10    
Growing Degree Days 6 (Base 50)    
Moisture  
Dew Point 54 °F    
Average Humidity 92    
Maximum Humidity 97    
Minimum Humidity 82    
Precipitation  
Precipitation 0.00 in - - ()
Sea Level Pressure  
Sea Level Pressure 30.13 in    
Wind  
Wind Speed 2 mph (East)    
Max Wind Speed 8 mph    
Max Gust Speed -    
Visibility 6 miles    
Events Rain    
Averages and records for this station are not official NWS values.
T = Trace of Precipitation, MM = Missing Value Source: NWS Daily Summary

Daily Weather History Graph

Daily Weather History Graph

Search for Another Location

Airport:

Trip Planner

Search our weather history database for the weather conditions in past years. The results will help you decide how hot, cold, wet, or windy it might be!

Date:

Astronomy

Jan. 01, 2014 Rise Set
Actual Time 7:17 AM CST 5:37 PM CST
Civil Twilight 6:51 AM CST 6:03 PM CST
Nautical Twilight 6:21 AM CST 6:32 PM CST
Astronomical Twilight 5:52 AM CST 7:01 PM CST
Moon 7:13 AM CST (1/1) 6:17 PM CST (1/1)
Length of Visible Light 11h 12m
Length of Day
10h 20m
New Moon, 0% of the Moon is Illuminated
Jan 1
New Moon
Jan 7
First Quarter
Jan 15
Full
Jan 23
Last Quarter
Jan 30
New

Hourly Weather History & Observations

Time (CST) Temp. Dew Point Humidity Pressure Visibility Wind Dir Wind Speed Gust Speed Precip Events Conditions
12:15 AM 46.8 °F 45.0 °F 93% 30.28 in 7.0 mi Calm Calm - N/A   Overcast
12:35 AM 46.8 °F 45.1 °F 94% 30.28 in 5.0 mi North 3.5 mph - N/A   Overcast
12:55 AM 47.1 °F 45.5 °F 94% 30.27 in 5.0 mi North 3.5 mph - N/A   Overcast
1:15 AM 47.5 °F 45.7 °F 93% 30.27 in 5.0 mi North 3.5 mph - N/A   Overcast
1:35 AM 47.7 °F 46.0 °F 94% 30.25 in 5.0 mi NE 3.5 mph - N/A   Overcast
1:55 AM 47.5 °F 45.9 °F 94% 30.24 in 5.0 mi Calm Calm - N/A   Overcast
2:15 AM 47.3 °F 45.7 °F 94% 30.24 in 5.0 mi NE 3.5 mph - N/A   Mostly Cloudy
2:35 AM 47.3 °F 46.0 °F 95% 30.23 in 4.0 mi NE 3.5 mph - N/A   Overcast
2:55 AM 47.5 °F 46.4 °F 96% 30.23 in 4.0 mi Calm Calm - N/A   Overcast
3:15 AM 47.5 °F 46.4 °F 96% 30.23 in 5.0 mi Calm Calm - N/A   Overcast
3:35 AM 47.5 °F 46.4 °F 96% 30.22 in 5.0 mi Calm Calm - N/A   Overcast
3:55 AM 47.3 °F 46.0 °F 95% 30.21 in 4.0 mi North 3.5 mph - N/A   Overcast
4:15 AM 47.3 °F 46.0 °F 95% 30.20 in 5.0 mi Calm Calm - N/A   Overcast
4:35 AM 47.5 °F 46.0 °F 95% 30.20 in 5.0 mi Calm Calm - N/A   Mostly Cloudy
4:55 AM 47.1 °F 45.7 °F 95% 30.19 in 5.0 mi Calm Calm - N/A   Mostly Cloudy
5:15 AM 47.1 °F 45.9 °F 95% 30.18 in 4.0 mi Calm Calm - N/A   Overcast
5:35 AM 46.9 °F 45.7 °F 95% 30.18 in 4.0 mi Calm Calm - N/A   Mostly Cloudy
5:55 AM 46.6 °F 45.5 °F 96% 30.19 in 4.0 mi Calm Calm - N/A   Mostly Cloudy
6:15 AM 47.1 °F 46.2 °F 97% 30.19 in 4.0 mi Calm Calm - N/A   Overcast
6:35 AM 47.8 °F 46.6 °F 95% 30.19 in 5.0 mi Calm Calm - N/A   Overcast
6:55 AM 48.2 °F 46.8 °F 95% 30.18 in 5.0 mi North 3.5 mph - N/A   Overcast
7:15 AM 48.0 °F 46.8 °F 95% 30.18 in 5.0 mi North 3.5 mph - N/A   Overcast
7:35 AM 48.2 °F 46.8 °F 95% 30.19 in 5.0 mi Calm Calm - N/A   Overcast
7:55 AM 48.4 °F 46.8 °F 94% 30.20 in 5.0 mi Calm Calm - N/A   Overcast
8:15 AM 48.9 °F 47.1 °F 93% 30.20 in 5.0 mi Calm Calm - N/A   Overcast
8:35 AM 49.3 °F 47.3 °F 93% 30.20 in 5.0 mi Calm Calm - N/A   Overcast
8:55 AM 49.8 °F 47.7 °F 92% 30.19 in 4.0 mi Calm Calm - N/A   Overcast
9:15 AM 50.7 °F 48.6 °F 92% 30.19 in 5.0 mi Calm Calm - N/A   Overcast
9:35 AM 51.4 °F 49.1 °F 92% 30.19 in 5.0 mi Calm Calm - N/A   Overcast
9:55 AM 52.5 °F 50.0 °F 91% 30.19 in 5.0 mi Calm Calm - N/A   Scattered Clouds
10:15 AM 54.3 °F 51.3 °F 89% 30.19 in 5.0 mi Calm Calm - N/A   Clear
10:35 AM 57.4 °F 53.2 °F 86% 30.18 in 7.0 mi Calm Calm - N/A   Scattered Clouds
10:55 AM 58.8 °F 54.5 °F 86% 30.17 in 7.0 mi SE 3.5 mph - N/A   Overcast
11:15 AM 59.7 °F 55.6 °F 86% 30.16 in 10.0 mi SE 3.5 mph - N/A   Overcast
11:35 AM 61.0 °F 56.7 °F 86% 30.15 in 10.0 mi SE 3.5 mph - N/A   Mostly Cloudy
11:55 AM 62.6 °F 57.4 °F 83% 30.14 in 10.0 mi ESE 3.5 mph - N/A   Overcast
12:15 PM 63.7 °F 58.5 °F 83% 30.14 in 10.0 mi SE 4.6 mph - N/A   Overcast
12:35 PM 64.8 °F 59.2 °F 82% 30.11 in 10.0 mi ESE 5.8 mph - N/A   Overcast
12:55 PM 64.6 °F 59.2 °F 83% 30.10 in 10.0 mi SE 4.6 mph - N/A   Overcast
1:15 PM 64.8 °F 59.2 °F 82% 30.09 in 10.0 mi SE 5.8 mph - N/A   Overcast
1:35 PM 65.1 °F 59.4 °F 82% 30.07 in 10.0 mi SE 8.1 mph - N/A   Overcast
1:55 PM 65.7 °F 59.9 °F 82% 30.06 in 10.0 mi ESE 6.9 mph - N/A   Overcast
2:15 PM 65.5 °F 59.9 °F 82% 30.06 in 10.0 mi ESE 8.1 mph - N/A   Overcast
2:35 PM 65.3 °F 59.9 °F 83% 30.05 in 10.0 mi SE 6.9 mph - N/A   Overcast
2:55 PM 65.5 °F 60.3 °F 83% 30.05 in 10.0 mi ESE 6.9 mph - N/A   Overcast
3:15 PM 65.3 °F 60.4 °F 84% 30.05 in 10.0 mi SE 6.9 mph - N/A   Overcast
3:35 PM 65.1 °F 60.3 °F 84% 30.05 in 10.0 mi SE 5.8 mph - N/A   Overcast
3:55 PM 64.9 °F 60.3 °F 85% 30.05 in 10.0 mi SE 3.5 mph - N/A   Overcast
4:15 PM 64.4 °F 60.8 °F 88% 30.05 in 4.0 mi Calm Calm - N/A   Drizzle
4:35 PM 63.9 °F 61.5 °F 92% 30.05 in 4.0 mi Calm Calm - N/A   Overcast
4:55 PM 63.3 °F 61.7 °F 94% 30.04 in 4.0 mi Calm Calm - N/A   Overcast
5:15 PM 63.0 °F 61.7 °F 96% 30.04 in 5.0 mi Calm Calm - N/A   Overcast
5:35 PM 62.8 °F 61.7 °F 96% 30.04 in 7.0 mi Calm Calm - N/A   Overcast
5:55 PM 62.6 °F 61.2 °F 95% 30.04 in 7.0 mi Calm Calm - N/A Rain Light Rain
6:15 PM 62.2 °F 61.0 °F 96% 30.03 in 7.0 mi Calm Calm - N/A   Overcast
6:35 PM 62.1 °F 60.8 °F 96% 30.03 in 7.0 mi East 3.5 mph - N/A   Overcast
6:55 PM 61.7 °F 60.4 °F 96% 30.03 in 10.0 mi ESE 3.5 mph - N/A   Overcast
7:15 PM 61.9 °F 60.1 °F 94% 30.03 in 10.0 mi East 3.5 mph - N/A   Overcast
7:35 PM 61.7 °F 59.9 °F 94% 30.03 in 10.0 mi Calm Calm - N/A   Overcast
7:55 PM 61.7 °F 59.9 °F 94% 30.03 in 10.0 mi Calm Calm - N/A   Overcast
8:15 PM 61.3 °F 59.9 °F 95% 30.03 in 10.0 mi Calm Calm - N/A   Overcast
8:35 PM 61.5 °F 59.9 °F 94% 30.05 in 10.0 mi North 4.6 mph - N/A   Overcast
8:55 PM 61.5 °F 59.9 °F 94% 30.05 in 10.0 mi ENE 3.5 mph - N/A   Overcast
9:15 PM 61.7 °F 59.9 °F 94% 30.05 in 5.0 mi Calm Calm - N/A   Overcast
9:35 PM 61.7 °F 60.1 °F 94% 30.04 in 5.0 mi East 3.5 mph - N/A   Overcast
9:55 PM 61.7 °F 60.1 °F 94% 30.04 in 5.0 mi ESE 3.5 mph - N/A   Overcast
10:15 PM 61.5 °F 60.1 °F 95% 30.05 in 5.0 mi Calm Calm - N/A   Overcast
10:35 PM 61.2 °F 59.9 °F 96% 30.06 in 5.0 mi Calm Calm - N/A   Overcast
10:55 PM 61.0 °F 59.9 °F 96% 30.06 in 5.0 mi Calm Calm - N/A   Overcast
11:15 PM 60.8 °F 59.9 °F 97% 30.06 in 4.0 mi Calm Calm - N/A   Overcast
11:35 PM 60.8 °F 59.9 °F 97% 30.06 in 3.0 mi Calm Calm - N/A   Overcast
11:55 PM 60.6 °F 59.9 °F 97% 30.06 in 2.5 mi Calm Calm - N/A   Overcast